Location: Unspecified
(0.0000°N, 0.0000°E)
Time: 01:07:50
(UTC+00:00)

Tansei-1 - Visible Passes

Search period start: 27 February 2021 00:00
Search period end: 09 March 2021 00:00
Orbit: 982 x 1100 km, 29.7° (Epoch: 26 February)

Date Brightness Start Highest point End Pass type
(mag) Time Alt. Az. Time Alt. Az. Time Alt. Az.
01 Mar 9.7 20:43:48 10° SSW 20:45:27 15° S 20:45:27 15° S visible
02 Mar 9.5 19:38:21 10° S 19:41:17 13° SSE 19:42:38 12° SE visible
02 Mar 10.2 21:28:26 10° SW 21:28:35 11° SW 21:28:35 11° SW visible
03 Mar 9.1 20:22:01 10° SSW 20:25:50 24° S 20:25:50 24° S visible
04 Mar 9.3 19:16:00 10° SSW 19:20:29 18° SSE 19:23:08 14° SE visible
04 Mar 9.6 21:07:05 10° SW 21:09:05 20° SW 21:09:05 20° SW visible
05 Mar 8.4 20:00:25 10° SW 20:06:26 37° SSE 20:06:26 37° SSE visible
06 Mar 9.0 18:54:06 10° SSW 18:59:37 24° SSE 19:03:52 14° ESE visible
06 Mar 8.8 20:45:51 10° SW 20:49:49 36° SW 20:49:49 36° SW visible
07 Mar 7.9 19:38:58 10° SW 19:45:50 51° SSE 19:47:17 44° ESE visible
07 Mar 10.1 21:32:19 10° WSW 21:33:15 14° W 21:33:15 14° W visible
08 Mar 10.0 05:17:10 10° NNE 05:18:09 10° NNE 05:19:08 10° NNE visible
08 Mar 8.7 18:32:25 10° SSW 18:38:40 32° SSE 18:44:47 10° E visible
08 Mar 7.9 20:24:46 10° WSW 20:30:48 62° W 20:30:48 62° W visible
